Location: Pacheco
(37.9835°N, 122.0752°W)
Time: 10:10:35
(UTC+00:00)

YAOGAN 11 - Pass Details

Date: 13 April 2024
Orbit: 606 x 659 km, 98.4° (Epoch: 23 May)

Event Time Altitude Azimuth Distance (km) Brightness Sun altitude
Rises 12:39:57 0° 161° (SSE) 2,932 7.5 -11.2°
Reaches altitude 10° 12:42:07 10° 160° (SSE) 2,035 6.7 -10.8°
Maximum altitude 12:46:33 75° 76° (ENE) 677 4.4 -10.0°
Drops below altitude 10° 12:51:04 10° 351° (N) 2,074 6.9 -9.1°
Sets 12:53:19 0° 349° (N) 2,994 7.7 -8.7°
